Location: Sevilla
(37.3933°N, 5.9839°W)
Time: 05:39:29
(UTC+02:00)

Transit 2A Rocket - Pass Details

Date: 02 July 2024
Orbit: 582 x 910 km, 66.7° (Epoch: 15 July)

Event Time Altitude Azimuth Distance (km) Brightness Sun altitude
Rises 04:32:01 0° 338° (NNW) 3,530 9.0 -22.9°
Reaches altitude 10° 04:34:44 10° 347° (NNW) 2,599 8.3 -22.6°
Maximum altitude 04:40:24 39° 55° (NE) 1,343 6.7 -22.1°
Drops below altitude 10° 04:45:56 10° 122° (ESE) 2,544 7.7 -21.4°
Sets 04:48:33 0° 130° (SE) 3,447 8.3 -21.2°
